Location: Days
(41.3591°N, 106.7339°W)
Time: 10:25:48
(UTC+00:00)

O/OREOS (USA 219) - Pass Details

Date: 05 July 2022
Orbit: 621 x 646 km, 72.0° (Epoch: 22 May)

Event Time Altitude Azimuth Distance (km) Brightness Sun altitude
Rises 05:24:20 0° 354° (N) 2,964 ? -21.2°
Reaches altitude 10° 05:27:38 10° 18° (NNE) 2,052 ? -21.5°
Maximum altitude 05:30:11 15° 52° (NE) 1,764 ? -21.7°
Enters shadow 05:32:04 12° 79° (ENE) 1,925 ? -21.8°
